Time,TemperatureF,DewpointF,PressureIn,WindDirection,WindDirectionDegrees,WindSpeedMPH,WindSpeedGustMPH,Humidity,HourlyPrecipIn,Conditions,Clouds,dailyrainin,SoftwareType,DateUTC
2013-04-10 00:00:00,17.0,-99.9,-100.00,North,-999,-999.0,-999.0,-999,-99.99,,,-99.99,,2013-04-10 06:00:00,
2013-04-10 01:00:00,16.0,-99.9,-100.00,North,-999,-999.0,-999.0,-999,-99.99,,,-99.99,,2013-04-10 07:00:00,
2013-04-10 01:53:00,16.0,-99.9,-100.00,North,-999,-999.0,-999.0,-999,-99.99,,,-99.99,,2013-04-10 07:53:00,
2013-04-10 02:00:00,16.0,-99.9,-100.00,North,-999,-999.0,-999.0,-999,-99.99,,,0.01,,2013-04-10 08:00:00,
2013-04-10 03:00:00,16.0,-99.9,-100.00,North,-999,-999.0,-999.0,-999,-99.99,,,0.01,,2013-04-10 09:00:00,
2013-04-10 04:00:00,18.0,-99.9,-100.00,North,-999,-999.0,-999.0,-999,-99.99,,,-99.99,,2013-04-10 10:00:00,
2013-04-10 05:00:00,16.0,-99.9,-100.00,North,-999,-999.0,-999.0,-999,-99.99,,,-99.99,,2013-04-10 11:00:00,
2013-04-10 06:00:00,15.0,-99.9,-100.00,North,-999,-999.0,-999.0,-999,-99.99,,,0.01,,2013-04-10 12:00:00,
2013-04-10 07:00:00,15.0,-99.9,-100.00,North,-999,-999.0,-999.0,-999,-99.99,,,0.01,,2013-04-10 13:00:00,
2013-04-10 08:00:00,16.0,-99.9,-100.00,North,-999,-999.0,-999.0,-999,-99.99,,,0.01,,2013-04-10 14:00:00,
2013-04-10 09:00:00,21.0,-99.9,-100.00,North,-999,-999.0,-999.0,-999,-99.99,,,0.01,,2013-04-10 15:00:00,
2013-04-10 10:00:00,26.0,-99.9,-100.00,North,-999,-999.0,-999.0,-999,-99.99,,,0.01,,2013-04-10 16:00:00,
2013-04-10 11:00:00,29.0,-99.9,-100.00,North,-999,-999.0,-999.0,-999,-99.99,,,0.01,,2013-04-10 17:00:00,
2013-04-10 12:00:00,31.0,-99.9,-100.00,North,-999,-999.0,-999.0,-999,-99.99,,,0.01,,2013-04-10 18:00:00,
2013-04-10 13:00:00,32.0,-99.9,-100.00,North,-999,-999.0,-999.0,-999,-99.99,,,0.01,,2013-04-10 19:00:00,
2013-04-10 14:00:00,34.0,-99.9,-100.00,North,-999,-999.0,-999.0,-999,-99.99,,,0.01,,2013-04-10 20:00:00,
2013-04-10 14:53:00,34.0,-99.9,-100.00,North,-999,-999.0,-999.0,-999,-99.99,,,0.01,,2013-04-10 20:53:00,
2013-04-10 15:00:00,34.0,-99.9,-100.00,North,-999,-999.0,-999.0,-999,-99.99,,,0.00,,2013-04-10 21:00:00,
2013-04-10 15:53:00,34.0,-99.9,-100.00,North,-999,-999.0,-999.0,-999,-99.99,,,0.00,,2013-04-10 21:53:00,
2013-04-10 16:00:00,37.0,-99.9,-100.00,North,-999,-999.0,-999.0,-999,-99.99,,,0.00,,2013-04-10 22:00:00,
2013-04-10 16:53:00,37.0,-99.9,-100.00,North,-999,-999.0,-999.0,-999,-99.99,,,0.00,,2013-04-10 22:53:00,
2013-04-10 17:00:00,38.0,-99.9,-100.00,North,-999,-999.0,-999.0,-999,-99.99,,,0.00,,2013-04-10 23:00:00,
2013-04-10 17:53:00,38.0,-99.9,-100.00,North,-999,-999.0,-999.0,-999,-99.99,,,0.00,,2013-04-10 23:53:00,
2013-04-10 18:00:00,34.0,-99.9,-100.00,North,-999,-999.0,-999.0,-999,-99.99,,,0.00,,2013-04-11 00:00:00,
2013-04-10 18:53:00,34.0,-99.9,-100.00,North,-999,-999.0,-999.0,-999,-99.99,,,0.00,,2013-04-11 00:53:00,
2013-04-10 19:00:00,34.0,-99.9,-100.00,North,-999,-999.0,-999.0,-999,-99.99,,,0.00,,2013-04-11 01:00:00,
2013-04-10 20:00:00,35.0,-99.9,-100.00,North,-999,-999.0,-999.0,-999,-99.99,,,0.00,,2013-04-11 02:00:00,
2013-04-10 20:53:00,35.0,-99.9,-100.00,North,-999,-999.0,-999.0,-999,-99.99,,,0.00,,2013-04-11 02:53:00,
2013-04-10 21:00:00,32.0,-99.9,-100.00,North,-999,-999.0,-999.0,-999,-99.99,,,-99.99,,2013-04-11 03:00:00,
2013-04-10 21:54:00,32.0,-99.9,-100.00,North,-999,-999.0,-999.0,-999,-99.99,,,-99.99,,2013-04-11 03:54:00,
2013-04-10 22:00:00,32.0,-99.9,-100.00,North,-999,-999.0,-999.0,-999,-99.99,,,0.00,,2013-04-11 04:00:00,
2013-04-10 22:53:00,32.0,-99.9,-100.00,North,-999,-999.0,-999.0,-999,-99.99,,,0.00,,2013-04-11 04:53:00,